STARLINK-11484 [DTC] (62277 NORAD) Tracking and Keplerian Element Data

This shows tracking and keplerian element data for the satellite.

Feedback or suggestion? Click here.




ElementValue
Catalog62277
NameSTARLINK-11484 [DTC]
Epoch Orbit1035
Epoch Day35.103756
Epoch Year2025
RAAN299.2781
Inclination42.9985
Eccentricity0.000119
Argument of Perigee256.1366
Mean Anonmoly103.937
Mean Motion15.70876443
Decay Rate0.00016803
L11 62277U 24237L 25035.10375600 .00016803 00000+0 13397-3 0 9992
L22 62277 42.9985 299.2781 0001190 256.1366 103.9370 15.70876443 10358



Live tracking and technical data element details for STARLINK-11484 [DTC] (NORAD 62277). STARLINK-11484 [DTC] can be tracked NOW for your location showing map with azimuth and elevation plus other details from your city location.







IsCatalogInMostPopularTable: catalog: 62277, numindb: 16
Update: records affected: 1



GetName: 62277 STARLINK-11484 [DTC]

Hit Count: updated at: Sun, 18 May 2025 23:42:04 GMT